Tracking 30166 objects as of 22-Jan-2025
HD Live streaming from Space Station
objects crossing your sky now

STARLINK-33542

Track STARLINK-33542 now!
10-day predictions
STARLINK-33542 is classified as:


NORAD ID: 62105
Int'l Code: 2024-220T
Perigee: 331.7 km
Apogee: 338.7 km
Inclination: 43.0 °
Period: 91.1 minutes
Semi major axis: 6706 km
RCS: Unknown
Launch date: November 25, 2024
Source: United States (US)
Launch site: AIR FORCE EASTERN TEST RANGE (AFETR)
Your satellite tracking list
Your tracking list is empty




NASA's NSSDC Master Catalog

Two Line Element Set (TLE):
1 62105U 24220T   25021.96362218  .00007607  00000-0  40719-4 0  9996
2 62105  42.9962   5.3058 0005188 298.6501  61.3848 15.80851168 10309
Source of the keplerian elements: AFSPC